Location: *
(46.1006°N, 1.8394°E)
Time: 07:12:16
(UTC+00:00)

In-Cosmos 22 - Pass Details

Date: 20 September 2019
Orbit: 785 x 876 km, 81.2° (Epoch: 18 October)

Event Time Altitude Azimuth Distance (km) Brightness Sun altitude
Rises 19:05:04 0° 352° (N) 3,307 7.6 -12.8°
Reaches altitude 10° 19:07:28 10° 356° (N) 2,382 6.8 -13.2°
Maximum altitude 19:12:47 59° 76° (ENE) 935 4.2 -14.1°
Drops below altitude 10° 19:18:10 10° 156° (SSE) 2,419 6.2 -15.0°
Enters shadow 19:18:24 - 156° (SSE) 2,509 6.3 -15.0°
